Time,TemperatureF,DewpointF,PressureIn,WindDirection,WindDirectionDegrees,WindSpeedMPH,WindSpeedGustMPH,Humidity,HourlyPrecipIn,Conditions,Clouds,dailyrainin,SoftwareType,DateUTC
2013-03-28 00:00:00,31.1,21.0,30.03,SW,229,0.0,-999.0,65,-99.99,,,0.00,weatherlink.com 1.10,2013-03-28 07:00:00,
2013-03-28 00:15:00,30.7,21.0,30.03,SW,229,0.0,-999.0,66,-99.99,,,0.00,weatherlink.com 1.10,2013-03-28 07:15:00,
2013-03-28 00:30:00,30.4,21.0,30.03,SW,229,1.0,-999.0,67,-99.99,,,0.00,weatherlink.com 1.10,2013-03-28 07:30:00,
2013-03-28 00:45:00,30.1,20.0,30.03,SW,229,3.0,-999.0,67,-99.99,,,0.00,weatherlink.com 1.10,2013-03-28 07:45:00,
2013-03-28 01:00:00,29.8,20.0,30.04,SW,229,0.0,-999.0,67,-99.99,,,0.00,weatherlink.com 1.10,2013-03-28 08:00:00,
2013-03-28 01:15:00,29.7,20.0,30.04,SW,229,2.0,-999.0,68,-99.99,,,0.00,weatherlink.com 1.10,2013-03-28 08:15:00,
2013-03-28 01:30:00,29.6,21.0,30.04,SW,229,1.0,-999.0,69,-99.99,,,0.00,weatherlink.com 1.10,2013-03-28 08:30:00,
2013-03-28 01:45:00,29.6,21.0,30.04,SW,229,0.0,-999.0,69,-99.99,,,0.00,weatherlink.com 1.10,2013-03-28 08:45:00,
2013-03-28 02:00:00,29.3,20.0,30.04,SW,229,0.0,-999.0,69,-99.99,,,0.00,weatherlink.com 1.10,2013-03-28 09:00:00,
2013-03-28 02:15:00,28.8,20.0,30.04,SW,229,0.0,-999.0,70,-99.99,,,0.00,weatherlink.com 1.10,2013-03-28 09:15:00,
2013-03-28 02:30:00,28.5,20.0,30.04,SW,229,1.0,-999.0,70,-99.99,,,0.00,weatherlink.com 1.10,2013-03-28 09:30:00,
2013-03-28 02:45:00,28.3,20.0,30.04,SW,229,0.0,-999.0,72,-99.99,,,0.00,weatherlink.com 1.10,2013-03-28 09:45:00,
2013-03-28 03:00:00,28.1,20.0,30.03,SW,229,0.0,-999.0,72,-99.99,,,0.00,weatherlink.com 1.10,2013-03-28 10:00:00,
2013-03-28 03:15:00,28.0,20.0,30.03,SW,229,0.0,-999.0,72,-99.99,,,0.00,weatherlink.com 1.10,2013-03-28 10:15:00,
2013-03-28 03:30:00,28.0,20.0,30.03,SW,229,0.0,-999.0,72,-99.99,,,0.00,weatherlink.com 1.10,2013-03-28 10:30:00,
2013-03-28 03:45:00,27.9,20.0,30.03,SW,229,0.0,-999.0,73,-99.99,,,0.00,weatherlink.com 1.10,2013-03-28 10:45:00,
2013-03-28 04:00:00,27.8,20.0,30.04,SW,229,0.0,-999.0,73,-99.99,,,0.00,weatherlink.com 1.10,2013-03-28 11:00:00,
2013-03-28 04:15:00,27.8,21.0,30.04,SW,229,0.0,-999.0,74,-99.99,,,0.00,weatherlink.com 1.10,2013-03-28 11:15:00,
2013-03-28 04:30:00,27.7,20.0,30.04,SW,229,0.0,-999.0,74,-99.99,,,0.00,weatherlink.com 1.10,2013-03-28 11:30:00,
2013-03-28 04:45:00,27.6,20.0,30.04,SW,229,0.0,-999.0,74,-99.99,,,0.00,weatherlink.com 1.10,2013-03-28 11:45:00,
2013-03-28 05:00:00,27.5,20.0,30.05,SW,229,0.0,-999.0,74,-99.99,,,0.00,weatherlink.com 1.10,2013-03-28 12:00:00,
2013-03-28 05:16:00,27.4,20.0,30.05,SW,229,1.0,-999.0,74,-99.99,,,0.00,weatherlink.com 1.10,2013-03-28 12:16:00,
2013-03-28 05:31:00,27.4,20.0,30.05,SW,229,0.0,-999.0,74,-99.99,,,0.00,weatherlink.com 1.10,2013-03-28 12:31:00,
2013-03-28 05:46:00,27.4,20.0,30.05,SW,229,0.0,-999.0,74,-99.99,,,0.00,weatherlink.com 1.10,2013-03-28 12:46:00,
2013-03-28 06:01:00,27.3,20.0,30.05,SW,229,0.0,-999.0,74,-99.99,,,0.00,weatherlink.com 1.10,2013-03-28 13:01:00,
2013-03-28 06:16:00,27.2,20.0,30.06,SW,229,2.0,-999.0,74,-99.99,,,0.00,weatherlink.com 1.10,2013-03-28 13:16:00,
2013-03-28 06:31:00,27.2,20.0,30.07,SW,229,0.0,-999.0,75,-99.99,,,0.00,weatherlink.com 1.10,2013-03-28 13:31:00,
2013-03-28 06:46:00,27.2,20.0,30.07,SW,229,0.0,-999.0,75,-99.99,,,0.00,weatherlink.com 1.10,2013-03-28 13:46:00,
2013-03-28 07:16:00,27.6,21.0,30.08,SW,229,1.0,-999.0,75,-99.99,,,0.00,weatherlink.com 1.10,2013-03-28 14:16:00,
2013-03-28 07:46:00,28.3,21.0,30.09,SW,229,1.0,-999.0,75,-99.99,,,0.00,weatherlink.com 1.10,2013-03-28 14:46:00,
2013-03-28 08:16:00,30.2,23.0,30.10,SW,229,1.0,-999.0,73,-99.99,,,0.00,weatherlink.com 1.10,2013-03-28 15:16:00,
2013-03-28 08:31:00,33.2,24.0,30.11,SW,229,0.0,-999.0,69,-99.99,,,0.00,weatherlink.com 1.10,2013-03-28 15:31:00,
2013-03-28 08:46:00,38.9,25.0,30.12,SW,229,0.0,-999.0,59,-99.99,,,0.00,weatherlink.com 1.10,2013-03-28 15:46:00,
2013-03-28 09:01:00,42.2,28.0,30.12,SW,229,0.0,-999.0,57,-99.99,,,0.00,weatherlink.com 1.10,2013-03-28 16:01:00,
2013-03-28 09:16:00,44.8,24.0,30.12,SW,229,0.0,-999.0,44,-99.99,,,0.00,weatherlink.com 1.10,2013-03-28 16:16:00,
2013-03-28 09:31:00,46.7,26.0,30.12,SW,229,0.0,-999.0,44,-99.99,,,0.00,weatherlink.com 1.10,2013-03-28 16:31:00,
2013-03-28 09:47:00,49.2,26.0,30.12,SW,229,1.0,-999.0,41,-99.99,,,0.00,weatherlink.com 1.10,2013-03-28 16:47:00,
2013-03-28 10:02:00,51.2,26.0,30.11,SW,226,2.0,-999.0,38,-99.99,,,0.00,weatherlink.com 1.10,2013-03-28 17:02:00,
2013-03-28 10:17:00,52.3,25.0,30.12,WSW,257,2.0,-999.0,34,-99.99,,,0.00,weatherlink.com 1.10,2013-03-28 17:17:00,
2013-03-28 10:32:00,52.2,25.0,30.12,West,265,1.0,-999.0,35,-99.99,,,0.00,weatherlink.com 1.10,2013-03-28 17:32:00,
2013-03-28 10:47:00,52.8,25.0,30.11,West,260,2.0,-999.0,34,-99.99,,,0.00,weatherlink.com 1.10,2013-03-28 17:47:00,
2013-03-28 11:02:00,53.6,24.0,30.11,South,182,2.0,-999.0,32,-99.99,,,0.00,weatherlink.com 1.10,2013-03-28 18:02:00,
2013-03-28 11:17:00,53.9,25.0,30.12,SSW,212,2.0,-999.0,33,-99.99,,,0.00,weatherlink.com 1.10,2013-03-28 18:17:00,
2013-03-28 11:32:00,55.5,24.0,30.11,WSW,247,4.0,-999.0,30,-99.99,,,0.00,weatherlink.com 1.10,2013-03-28 18:32:00,
2013-03-28 11:47:00,56.5,24.0,30.12,South,184,1.0,-999.0,29,-99.99,,,0.00,weatherlink.com 1.10,2013-03-28 18:47:00,
2013-03-28 12:02:00,56.0,24.0,30.11,South,180,4.0,-999.0,29,-99.99,,,0.00,weatherlink.com 1.10,2013-03-28 19:02:00,
2013-03-28 12:17:00,57.5,24.0,30.11,SSW,197,2.0,-999.0,28,-99.99,,,0.00,weatherlink.com 1.10,2013-03-28 19:17:00,
2013-03-28 12:32:00,58.1,25.0,30.11,SW,232,2.0,-999.0,28,-99.99,,,0.00,weatherlink.com 1.10,2013-03-28 19:32:00,
2013-03-28 12:47:00,58.2,23.0,30.11,SW,215,3.0,-999.0,26,-99.99,,,0.00,weatherlink.com 1.10,2013-03-28 19:47:00,
2013-03-28 13:17:00,59.3,25.0,30.10,South,176,1.0,-999.0,27,-99.99,,,0.00,weatherlink.com 1.10,2013-03-28 20:17:00,
2013-03-28 13:35:00,58.6,24.0,30.10,West,265,3.0,-999.0,26,-99.99,,,0.00,weatherlink.com 1.10,2013-03-28 20:35:00,
2013-03-28 13:47:00,59.5,23.0,30.10,WSW,255,6.0,-999.0,25,-99.99,,,0.00,weatherlink.com 1.10,2013-03-28 20:47:00,
2013-03-28 14:02:00,57.8,24.0,30.09,NW,325,5.0,-999.0,27,-99.99,,,0.00,weatherlink.com 1.10,2013-03-28 21:02:00,
2013-03-28 14:17:00,59.3,24.0,30.08,West,267,4.0,-999.0,26,-99.99,,,0.00,weatherlink.com 1.10,2013-03-28 21:17:00,
2013-03-28 14:32:00,59.6,24.0,30.07,SW,216,1.0,-999.0,25,-99.99,,,0.00,weatherlink.com 1.10,2013-03-28 21:32:00,
2013-03-28 14:47:00,59.9,23.0,30.07,West,278,5.0,-999.0,24,-99.99,,,0.00,weatherlink.com 1.10,2013-03-28 21:47:00,
2013-03-28 15:02:00,60.1,23.0,30.08,WSW,242,4.0,-999.0,24,-99.99,,,0.00,weatherlink.com 1.10,2013-03-28 22:02:00,
2013-03-28 15:17:00,59.8,23.0,30.08,SSE,157,6.0,-999.0,24,-99.99,,,0.00,weatherlink.com 1.10,2013-03-28 22:17:00,
2013-03-28 15:32:00,59.1,23.0,30.07,South,190,3.0,-999.0,25,-99.99,,,0.00,weatherlink.com 1.10,2013-03-28 22:32:00,
2013-03-28 15:47:00,59.0,23.0,30.07,SW,221,3.0,-999.0,25,-99.99,,,0.00,weatherlink.com 1.10,2013-03-28 22:47:00,
2013-03-28 16:02:00,59.3,23.0,30.07,SSW,207,3.0,-999.0,25,-99.99,,,0.00,weatherlink.com 1.10,2013-03-28 23:02:00,
2013-03-28 16:17:00,59.4,23.0,30.07,SSE,162,3.0,-999.0,25,-99.99,,,0.00,weatherlink.com 1.10,2013-03-28 23:17:00,
2013-03-28 16:32:00,59.4,24.0,30.07,SW,222,6.0,-999.0,26,-99.99,,,0.00,weatherlink.com 1.10,2013-03-28 23:32:00,
2013-03-28 16:47:00,58.5,24.0,30.07,SSE,157,3.0,-999.0,26,-99.99,,,0.00,weatherlink.com 1.10,2013-03-28 23:47:00,
2013-03-28 17:02:00,58.2,23.0,30.07,SW,236,3.0,-999.0,26,-99.99,,,0.00,weatherlink.com 1.10,2013-03-29 00:02:00,
2013-03-28 17:17:00,58.1,23.0,30.07,SSW,205,2.0,-999.0,26,-99.99,,,0.00,weatherlink.com 1.10,2013-03-29 00:17:00,
2013-03-28 17:32:00,57.4,23.0,30.08,South,170,0.0,-999.0,26,-99.99,,,0.00,weatherlink.com 1.10,2013-03-29 00:32:00,
2013-03-28 17:47:00,57.4,23.0,30.08,SW,236,6.0,-999.0,26,-99.99,,,0.00,weatherlink.com 1.10,2013-03-29 00:47:00,
2013-03-28 18:02:00,57.0,24.0,30.08,SSW,192,1.0,-999.0,28,-99.99,,,0.00,weatherlink.com 1.10,2013-03-29 01:02:00,
2013-03-28 18:17:00,56.0,23.0,30.08,SSE,150,0.0,-999.0,28,-99.99,,,0.00,weatherlink.com 1.10,2013-03-29 01:17:00,
2013-03-28 18:32:00,55.0,23.0,30.09,WSW,250,2.0,-999.0,29,-99.99,,,0.00,weatherlink.com 1.10,2013-03-29 01:32:00,
2013-03-28 18:47:00,53.7,23.0,30.09,SSW,192,0.0,-999.0,30,-99.99,,,0.00,weatherlink.com 1.10,2013-03-29 01:47:00,
2013-03-28 19:02:00,52.7,22.0,30.10,SSW,194,0.0,-999.0,30,-99.99,,,0.00,weatherlink.com 1.10,2013-03-29 02:02:00,
2013-03-28 19:17:00,51.9,22.0,30.10,South,171,0.0,-999.0,31,-99.99,,,0.00,weatherlink.com 1.10,2013-03-29 02:17:00,
2013-03-28 19:32:00,50.9,23.0,30.11,South,171,0.0,-999.0,33,-99.99,,,0.00,weatherlink.com 1.10,2013-03-29 02:32:00,
2013-03-28 19:47:00,49.9,22.0,30.11,South,171,0.0,-999.0,34,-99.99,,,0.00,weatherlink.com 1.10,2013-03-29 02:47:00,
2013-03-28 20:02:00,49.0,22.0,30.11,South,171,0.0,-999.0,34,-99.99,,,0.00,weatherlink.com 1.10,2013-03-29 03:02:00,
2013-03-28 20:17:00,48.3,22.0,30.12,South,171,0.0,-999.0,35,-99.99,,,0.00,weatherlink.com 1.10,2013-03-29 03:17:00,
2013-03-28 20:32:00,47.4,21.0,30.13,South,171,0.0,-999.0,36,-99.99,,,0.00,weatherlink.com 1.10,2013-03-29 03:32:00,
2013-03-28 20:47:00,45.9,22.0,30.13,South,171,0.0,-999.0,39,-99.99,,,0.00,weatherlink.com 1.10,2013-03-29 03:47:00,
2013-03-28 21:02:00,44.2,23.0,30.14,South,171,0.0,-999.0,43,-99.99,,,0.00,weatherlink.com 1.10,2013-03-29 04:02:00,
2013-03-28 21:17:00,42.5,23.0,30.14,South,171,0.0,-999.0,46,-99.99,,,0.00,weatherlink.com 1.10,2013-03-29 04:17:00,
2013-03-28 21:32:00,40.9,23.0,30.14,South,171,0.0,-999.0,50,-99.99,,,0.00,weatherlink.com 1.10,2013-03-29 04:32:00,
2013-03-28 21:47:00,39.8,23.0,30.14,South,171,0.0,-999.0,52,-99.99,,,0.00,weatherlink.com 1.10,2013-03-29 04:47:00,
2013-03-28 22:02:00,39.2,23.0,30.15,South,171,0.0,-999.0,53,-99.99,,,0.00,weatherlink.com 1.10,2013-03-29 05:02:00,
2013-03-28 22:18:00,38.7,24.0,30.14,South,171,0.0,-999.0,55,-99.99,,,0.00,weatherlink.com 1.10,2013-03-29 05:18:00,
2013-03-28 22:33:00,38.3,23.0,30.14,South,171,1.0,-999.0,55,-99.99,,,0.00,weatherlink.com 1.10,2013-03-29 05:33:00,
2013-03-28 22:48:00,37.8,23.0,30.15,South,171,0.0,-999.0,56,-99.99,,,0.00,weatherlink.com 1.10,2013-03-29 05:48:00,
2013-03-28 23:03:00,37.4,23.0,30.15,South,171,0.0,-999.0,57,-99.99,,,0.00,weatherlink.com 1.10,2013-03-29 06:03:00,
2013-03-28 23:18:00,37.2,24.0,30.15,South,171,0.0,-999.0,59,-99.99,,,0.00,weatherlink.com 1.10,2013-03-29 06:18:00,
2013-03-28 23:33:00,36.7,24.0,30.14,South,171,0.0,-999.0,60,-99.99,,,0.00,weatherlink.com 1.10,2013-03-29 06:33:00,
2013-03-28 23:48:00,36.4,24.0,30.14,South,171,0.0,-999.0,60,-99.99,,,0.00,weatherlink.com 1.10,2013-03-29 06:48:00,